TimeMDT,TemperatureF,Dew PointF,Humidity,Sea Level PressureIn,VisibilityMPH,Wind Direction,Wind SpeedMPH,Gust SpeedMPH,PrecipitationIn,Events,Conditions,WindDirDegrees,DateUTC
12:53 AM,39.0,33.1,79,29.94,10.0,WNW,16.1,-,N/A,,Overcast,290,2013-11-01 06:53:00
1:53 AM,39.0,30.9,73,29.97,10.0,NW,11.5,31.1,0.00,Rain,Light Rain,310,2013-11-01 07:53:00
2:53 AM,39.0,30.9,73,29.98,10.0,NNW,10.4,-,0.00,,Overcast,340,2013-11-01 08:53:00
3:53 AM,41.0,27.0,57,29.99,10.0,NW,19.6,-,0.00,,Mostly Cloudy,310,2013-11-01 09:53:00
4:53 AM,39.9,27.0,60,30.02,10.0,NW,15.0,-,N/A,,Mostly Cloudy,320,2013-11-01 10:53:00
5:53 AM,41.0,26.1,55,30.05,10.0,NW,15.0,-,N/A,,Mostly Cloudy,310,2013-11-01 11:53:00
6:53 AM,41.0,27.0,57,30.09,10.0,NNW,17.3,25.3,N/A,,Overcast,330,2013-11-01 12:53:00
7:53 AM,42.1,25.0,51,30.09,10.0,NW,27.6,35.7,N/A,,Overcast,310,2013-11-01 13:53:00
8:53 AM,42.1,26.1,53,30.13,10.0,NW,17.3,-,N/A,,Overcast,310,2013-11-01 14:53:00
9:53 AM,44.1,27.0,51,30.16,10.0,NW,15.0,20.7,N/A,,Overcast,320,2013-11-01 15:53:00
10:53 AM,46.9,26.1,44,30.16,10.0,NW,20.7,27.6,N/A,,Overcast,320,2013-11-01 16:53:00
11:53 AM,48.0,25.0,41,30.17,10.0,NW,19.6,-,N/A,,Clear,320,2013-11-01 17:53:00
12:53 PM,48.9,25.0,39,30.16,10.0,NNW,20.7,-,N/A,,Scattered Clouds,340,2013-11-01 18:53:00
1:53 PM,51.1,21.0,31,30.14,10.0,NW,23.0,28.8,N/A,,Scattered Clouds,320,2013-11-01 19:53:00
2:53 PM,51.1,25.0,36,30.12,10.0,NNW,24.2,31.1,N/A,,Partly Cloudy,340,2013-11-01 20:53:00
3:53 PM,48.9,25.0,39,30.13,10.0,North,16.1,-,N/A,,Mostly Cloudy,350,2013-11-01 21:53:00
4:53 PM,48.0,26.1,42,30.13,10.0,NNW,9.2,-,N/A,,Overcast,330,2013-11-01 22:53:00
5:53 PM,37.9,27.0,65,30.15,10.0,West,3.5,-,N/A,,Scattered Clouds,270,2013-11-01 23:53:00
6:53 PM,33.1,26.1,75,30.18,10.0,WSW,5.8,-,N/A,,Clear,240,2013-11-02 00:53:00
7:53 PM,30.9,25.0,79,30.19,10.0,South,3.5,-,N/A,,Clear,190,2013-11-02 01:53:00
8:53 PM,30.0,24.1,79,30.19,10.0,South,5.8,-,N/A,,Clear,180,2013-11-02 02:53:00
9:53 PM,28.9,23.0,78,30.19,10.0,SSW,6.9,-,N/A,,Clear,200,2013-11-02 03:53:00
10:53 PM,27.0,21.9,81,30.19,10.0,South,6.9,-,N/A,,Clear,190,2013-11-02 04:53:00
11:53 PM,26.1,21.0,81,30.18,10.0,SSE,3.5,-,N/A,,Clear,160,2013-11-02 05:53:00